Texas Instruments Current Ratio 2006-2021 | TXN

Current and historical current ratio for Texas Instruments (TXN) from 2006 to 2021. Current ratio can be defined as a liquidity ratio that measures a company's ability to pay short-term obligations. Texas Instruments current ratio for the three months ending March 31, 2021 was 6.12.
Texas Instruments Current Ratio Historical Data
Date Current Assets Current Liabilities Current Ratio
2021-03-31 $10.41B $1.70B 6.12
2020-12-31 $10.24B $2.39B 4.28
2020-09-30 $9.26B $2.19B 4.24
2020-06-30 $8.49B $2.16B 3.92
2020-03-31 $8.31B $2.38B 3.49
2019-12-31 $8.76B $2.12B 4.13
2019-09-30 $8.71B $2.01B 4.34
2019-06-30 $7.96B $2.65B 3.01
2019-03-31 $7.95B $2.16B 3.68
2018-12-31 $8.10B $2.47B 3.27
2018-09-30 $9.47B $2.38B 3.98
2018-06-30 $9.59B $1.47B 6.54
2018-03-31 $8.59B $1.86B 4.62
2017-12-31 $8.73B $2.26B 3.87
2017-09-30 $7.99B $2.06B 3.89
2017-06-30 $7.51B $1.88B 4.00
2017-03-31 $7.04B $1.60B 4.40
2016-12-31 $7.46B $2.26B 3.29
2016-09-30 $7.18B $2.17B 3.31
2016-06-30 $6.69B $1.99B 3.36
2016-03-31 $6.66B $2.42B 2.75
2015-12-31 $7.07B $2.56B 2.77
2015-09-30 $7.29B $2.50B 2.92
2015-06-30 $8.06B $3.19B 2.52
2015-03-31 $7.69B $2.29B 3.37
2014-12-31 $7.42B $2.66B 2.79
2014-09-30 $7.76B $2.64B 2.94
2014-06-30 $7.46B $1.80B 4.14
2014-03-31 $8.36B $2.47B 3.38
2013-12-31 $8.02B $2.75B 2.92
2013-09-30 $8.10B $2.72B 2.98
2013-06-30 $8.04B $2.80B 2.87
2013-03-31 $8.21B $3.11B 2.64
2012-12-31 $8.23B $3.43B 2.40
2012-09-30 $8.58B $3.43B 2.51
2012-06-30 $7.35B $3.82B 1.92
2012-03-31 $7.59B $2.91B 2.61
2011-12-31 $7.83B $3.50B 2.24
2011-09-30 $7.72B $3.67B 2.10
2011-06-30 $10.86B $1.75B 6.20
2011-03-31 $7.04B $1.79B 3.93
2010-12-31 $7.06B $1.98B 3.56
2010-09-30 $6.47B $1.84B 3.52
2010-06-30 $6.13B $1.54B 3.99
2010-03-31 $6.32B $1.72B 3.68
2009-12-31 $6.11B $1.59B 3.85
2009-09-30 $6.14B $1.66B 3.69
2009-06-30 $5.74B $1.47B 3.91
2009-03-31 $5.53B $1.29B 4.30
2008-12-31 $5.79B $1.53B 3.78
2008-09-30 $6.21B $1.74B 3.57
2008-06-30 $6.01B $1.76B 3.42
2008-03-31 $5.98B $1.85B 3.23
2007-12-31 $6.92B $2.03B 3.42
2007-09-30 $8.05B $2.03B 3.97
2007-06-30 $8.22B $1.96B 4.21
2007-03-31 $7.83B $1.81B 4.34
2006-12-31 $7.85B $2.08B 3.78
2006-09-30 $8.62B $2.43B 3.55
2006-06-30 $9.79B $2.78B 3.52
2006-03-31 $8.08B $2.10B 3.86
2005-12-31 $9.41B $2.38B 3.96
2005-09-30 $9.13B $2.25B 4.07
2005-06-30 $8.50B $2.11B 4.03
2005-03-31 $9.07B $2.19B 4.14
Sector Industry Market Cap Revenue
Computer and Technology Semiconductor - General $173.622B $14.461B
Texas Instruments Incorporated (TI) is a global semiconductor design and manufacturing company that develops analog ICs and embedded processors. By employing the world's brightest minds, TI creates innovations that shape the future of technology. TI is helping approximately 100,000 customers transform the future, today. They produce TI DLP technology and education technology products. Analog products connect the physical and the digital worlds -turning signals like sound, pressure, temperature, humidity and light into digital 1s and 0s to be used by electronic devices - and translating that data back to information we interact with in the real world. Embedded processors are the processing brains of electronics that gather inputs from analog chips and perform computational processing to operate a system. TI DLP? technology powers a range of display and advanced light control applications spanning industrial, enterprise, automotive and consumer market segments, including projectors and cinema technology.
Stock Name Country Market Cap PE Ratio
NVIDIA (NVDA) United States $434.231B 71.19
Intel (INTC) United States $231.700B 10.93
STMicroelectronics (STM) Switzerland $34.463B 27.41
SUMCO CORP ADR (SUOPY) Japan $6.897B 30.09
Thk (THKLY) Japan $4.166B 0.00
Amtech Systems (ASYS) United States $0.138B 0.00